Regional Weather Roundup
Issued by NWS

Home | Current Version | Previous Version | Graphics & Text | Print | Product List | Glossary On
Versions: 1 2 3 4 5 6 7 8 9 10 11 12 13 14 15 16 17 18 19 20 21 22 23 24 25 26 27 28 29 30 31 32 33 34 35 36 37 38 39 40 41 42 43 44 45 46 47 48 49 50
000
ASUS43 KIND 240709
RWRIN

WEATHER ROUNDUP FOR INDIANA
NATIONAL WEATHER SERVICE INDIANAPOLIS IN
200 AM EST WED JAN 24 2018

NOTE: "FAIR" INDICATES FEW OR NO CLOUDS BELOW 12,000 FEET WITH NO
SIGNIFICANT WEATHER AND/OR OBSTRUCTIONS TO VISIBILITY.

* - STATION DOES NOT REPORT WEATHER SUCH AS PRECIPITATION OR FOG.

+ - STATION NOT QUALITY CONTROLLED BY THE NATIONAL WEATHER SERVICE.
    USE DATA WITH CAUTION...ESPECIALLY DEWPOINT AND RELATIVE
    HUMIDITY OBSERVATIONS.

INZ001>003-010>013-019-020-240800-
NORTHWEST INDIANA

CITY           SKY/WX    TMP DP  RH WIND       PRES   REMARKS
GARY /AIRPORT/ CLOUDY    30  23  74 W6        30.17S WCI  24
KNOX *+        CLOUDY    30  27  86 W8        30.15S WCI  23
LA PORTE +     CLOUDY    29  24  81 W8        30.15S WCI  21
MICHIGAN CITY+ CLOUDY    30  27  86 NW6       30.16S WCI  24
MONTICELLO +   CLOUDY    29  25  83 W8        30.17R WCI  21
RENSSELAER +   CLOUDY    30  25  80 NW6       30.17R WCI  24
VALPARAISO     CLOUDY    30  24  78 NW7       30.15F WCI  23

$$

LMZ046-743>745-240800-
SOUTHERN LAKE MICHIGAN

STATION/POSITION TIME  TEMP    WIND        PRES    WAVE
                       AIR SEA DIR/SP/G            HT
                 (UTC) (F)     (DEG/KT/KT) (MB)    (FT)
BURNS HARBOR     0640   29     300/  9/ 12 1021.7S
MICHIGAN CITY    0640   29     270/ 11/ 13   N/A

$$

INZ004-005-014>016-021>024-240800-
NORTH CENTRAL INDIANA

CITY           SKY/WX    TMP DP  RH WIND       PRES   REMARKS
GOSHEN         CLOUDY    31  25  78 NW13      30.12R WCI  21
LOGANSPORT +   CLOUDY    30  27  86 W10       30.16S WCI  21
ROCHESTER +    MOCLDY    32  28  86 W9        30.14F WCI  24
SOUTH BEND     CLOUDY    29  25  85 W9        30.13R WCI  20
WARSAW +       CLOUDY    30  28  93 W9        30.12R WCI  22

$$

INZ006>009-017-018-025>027-240800-
NORTHEAST INDIANA

CITY           SKY/WX    TMP DP  RH WIND       PRES   REMARKS
AUBURN +       CLOUDY   N/A N/A N/A NW8       30.11R
FORT WAYNE     CLOUDY    32  27  81 W9        30.12R WCI  24
HUNTINGTON +   CLOUDY    30  27  88 W6        30.13R WCI  24
KENDALLVILLE + CLOUDY    29  24  82 NW8       30.10R WCI  21

$$

INZ028-029-035-036-043>045-051>053-240800-
WEST CENTRAL INDIANA

CITY           SKY/WX    TMP DP  RH WIND       PRES   REMARKS
CRAWFORDSVL +  CLOUDY    28  28 100 MISG      30.16S
GREENCASTLE +  CLOUDY    30  27  86 CALM      30.19S
LAFAYETTE      CLOUDY    30  27  88 NW7       30.17F WCI  23
TERRE HAUTE    CLOUDY    31  25  78 W12       30.22R WCI  22

$$

INZ030>032-037>040-046>048-054>057-064-065-240800-
CENTRAL INDIANA

CITY           SKY/WX    TMP DP  RH WIND       PRES   REMARKS
FRANKFORT +    CLOUDY    32  29  88 NW6       30.18R WCI  26
GREENWOOD *+   CLOUDY    32  29  88 NW6       30.18R WCI  27
INDIANAPOLIS   FRZ DRZL  30  28  92 W14       30.18R WCI  19
-EAGLE CREEK   CLOUDY    43  27  53 NW9       30.16S
MARION +       CLOUDY    29  27  90 W13       30.15R WCI  19
MT COMFORT *+  CLOUDY    30  28  93 NW9       30.17R WCI  22
SHELBYVILLE    LGT SNOW  31  28  89 NW5       30.17R FOG     WCI  26
ZIONSVILLE +   CLOUDY    29  26  90 NW5       30.16S WCI  24

$$

INZ033-034-041-042-049-050-058-059-240800-
EAST CENTRAL INDIANA

CITY           SKY/WX    TMP DP  RH WIND       PRES   REMARKS
MUNCIE         CLOUDY    32  25  75 W12       30.14R WCI  23
RICHMOND +     CLOUDY    30  28  93 W13       30.13R WCI  20

$$

INZ060-061-067>069-081>083-085>088-240800-
SOUTHWEST INDIANA

CITY           SKY/WX    TMP DP  RH WIND       PRES   REMARKS
EVANSVILLE     CLOUDY    34  27  75 W7G18     30.26F WCI  28
HUNTINGBURG +  CLOUDY    33  29  85 NW6       30.25S WCI  28
WASHINGTON +   CLOUDY    32  27  81 W7        30.25R WCI  26

$$

INZ062-063-066-070>080-084-089>092-240800-
SOUTH CENTRAL AND SOUTHEAST INDIANA

CITY           SKY/WX    TMP DP  RH WIND       PRES   REMARKS
BATESVILLE *+    N/A    N/A N/A N/A MISG        N/A
BEDFORD +      CLOUDY    32  28  86 W7        30.20R WCI  26
BLOOMINGTON    CLOUDY    31  27  85 NW10      30.19S WCI  22
FRENCH LICK *+ CLOUDY    32  32 100 W7        30.22S WCI  26
MADISON *+     CLOUDY    32  30  93 W8        30.21R WCI  25
NORTH VERNON + CLOUDY    30  28  93 W6        30.19R FOG     WCI  24
SEYMOUR +      CLOUDY    34  30  86 W3        30.20S

$$




USA.gov is the U.S. government's official web portal to all federal, state and local government web resources and services.